Temperature
20 21 22 23 22 20 20 19 19 20 19 21 20 19 21 22 21 21 21 21 22 22 21 20 20 19 19 19 19 18 18 18 18 17 17 17 17 16 16 16 16 16 16 16
21 21 22 23 23 21 22 21 21 21 21 20 20 21 21 21 21 21 22 22 22 22 21 21 20 20 19 19 18 18 18 18 17 17 17 17 16 16 16 16 16 16 16 15
19 21 22 22 22 22 22 22 21 21 21 20 19 19 20 21 21 22 22 22 22 22 22 21 21 20 19 19 19 18 18 18 17 17 17 16 16 16 16 16 16 15 15 15
17 20 21 20 21 22 22 21 20 20 20 19 19 20 21 22 22 22 22 22 22 22 22 21 21 20 19 19 18 18 18 18 17 17 17 16 16 16 16 16 15 15 15 15
15 18 20 21 21 20 21 21 20 19 18 18 19 19 20 21 22 23 23 23 22 22 22 21 20 20 19 19 18 18 18 17 17 17 16 16 16 16 15 15 15 15 15 15
15 18 19 20 21 20 21 21 19 18 17 17 19 18 19 21 21 22 22 22 22 22 21 20 20 19 19 19 18 18 17 17 16 16 16 16 15 15 15 15 15 15 15 14
15 17 17 18 18 20 21 20 19 18 18 18 18 18 20 20 21 21 21 21 21 21 20 20 19 19 19 18 18 17 17 16 16 16 16 15 15 15 15 15 14 14 14 14
14 17 17 18 18 19 18 18 18 18 19 18 18 18 19 19 19 20 20 20 20 20 20 19 19 18 18 18 17 17 16 16 16 15 15 15 15 14 14 14 14 14 14 13
14 15 15 16 16 18 18 18 19 19 19 19 18 18 18 18 18 18 18 19 19 19 19 18 18 18 18 17 17 16 16 15 15 14 14 14 14 14 14 14 13 13 13 13
13 14 14 15 16 17 18 19 19 19 19 19 18 18 18 17 17 17 17 18 18 18 18 17 17 17 17 17 16 15 15 15 14 14 14 14 14 13 13 13 13 13 12 12
13 14 15 16 16 17 18 18 18 18 19 18 18 17 17 17 17 17 17 17 17 17 17 16 16 16 16 15 15 15 14 14 14 13 13 13 13 13 13 12 12 12 12 12
13 14 13 15 16 17 17 17 18 18 17 17 18 17 17 17 17 17 17 16 16 16 16 16 15 15 15 14 14 14 13 13 13 13 13 12 12 12 12 12 11 11 11 11
15 15 15 15 16 16 17 17 17 17 17 17 17 17 17 16 16 16 16 16 16 15 15 15 14 14 14 13 13 13 13 13 12 12 12 12 12 11 11 11 10 10 10 10
15 15 15 15 16 16 16 16 16 16 16 16 16 16 16 16 16 16 15 15 14 14 14 14 14 13 13 13 12 12 12 12 12 11 11 11 11 11 10 10 10 9 9 9
15 16 16 16 15 16 16 16 16 16 16 16 15 15 15 15 15 15 14 14 13 13 13 13 13 12 12 12 12 11 11 11 11 11 11 10 10 10 10 9 9 9 9 8
15 15 15 15 16 16 15 16 16 15 15 15 15 15 14 14 14 14 13 13 12 12 12 12 12 11 11 11 11 11 10 10 10 10 10 10 9 9 9 9 9 8 8 8
14 14 15 15 15 15 15 15 15 15 15 15 14 14 13 13 13 12 12 12 11 11 11 11 10 10 10 10 10 10 10 10 10 10 9 9 9 9 9 8 8 8 8 8
14 15 15 15 15 15 15 15 15 15 14 14 14 13 13 12 12 12 11 11 10 10 10 10 10 9 9 9 9 9 9 9 9 9 9 9 8 8 8 8 8 8 7 7
14 14 15 15 15 15 15 14 14 14 13 13 13 12 12 11 11 11 10 10 10 10 9 9 9 9 9 9 9 9 9 9 9 8 8 8 8 8 8 8 7 7 7 7
14 14 14 14 14 14 14 14 13 13 13 12 12 11 11 11 10 10 10 9 9 9 9 9 9 9 8 8 8 8 8 8 8 8 8 8 8 7 7 7 7 7 7 7
13 13 13 14 14 13 13 13 13 12 12 11 11 11 10 10 9 9 9 9 9 9 9 8 8 8 8 8 8 8 8 8 8 8 8 7 7 7 7 7 7 7 7 7
12 12 13 13 13 12 12 12 12 12 11 11 10 10 10 9 9 9 9 9 8 8 8 8 8 8 8 8 8 8 8 8 8 8 7 7 7 7 7 7 7 7 7 7
11 12 12 12 12 12 11 11 11 11 11 10 10 10 9 9 9 8 8 8 8 8 8 8 8 8 8 8 8 8 8 8 8 8 8 7 7 7 7 7 7 7 7 7
10 11 11 11 11 11 11 10 10 10 10 10 9 9 9 9 8 8 8 8 8 8 8 8 8 8 8 8 8 8 8 8 8 8 8 8 8 8 7 7 7 7 7 7
10 10 10 10 10 10 10 10 10 9 9 9 9 9 9 9 9 8 8 8 8 8 8 8 8 8 8 8 8 8 8 8 8 8 8 8 8 8 8 8 8 7 7 7
9 9 9 9 9 10 9 9 9 9 9 9 9 9 9 9 9 9 8 8 8 8 8 8 8 8 8 8 8 8 8 8 8 8 8 8 8 8 8 8 8 8 7 7
9 9 9 9 9 9 9 9 9 9 9 9 9 9 9 9 9 9 8 8 8 8 8 8 8 8 8 8 8 8 8 8 8 8 8 8 8 8 8 8 8 8 8 8
Wind_Speed
7 5 5 6 7 9 8 9 10 9 9 12 11 11 9 7 6 7 8 9 9 9 7 7 6 6 6 5 5 5 6 5 4 4 3 3 3 3 3 3 3 3 3 3
2 4 6 4 6 9 7 6 6 5 8 9 6 4 5 7 8 9 10 10 10 9 8 9 9 8 7 6 5 5 6 5 4 4 4 4 3 3 3 2 2 3 3 3
3 1 5 5 7 7 5 5 7 8 8 4 3 7 9 9 9 11 11 10 10 10 9 9 8 8 8 6 6 5 5 5 4 5 4 3 4 4 3 3 3 3 3 3
3 4 6 9 4 4 5 4 5 6 5 5 6 4 3 5 8 9 9 9 10 9 8 6 6 6 6 6 6 6 5 5 4 5 5 4 4 4 3 3 3 3 3 4
4 5 4 5 2 4 5 3 3 5 3 2 3 3 2 2 4 7 7 7 7 8 8 7 7 7 7 6 6 5 5 4 4 5 6 5 5 4 4 4 4 3 4 4
5 5 7 8 3 1 4 3 3 3 4 4 5 2 4 1 2 3 5 6 7 7 7 7 6 7 8 7 6 5 4 4 4 5 6 6 5 4 4 4 4 4 4 4
5 4 7 6 5 1 5 7 2 3 4 5 4 4 1 3 3 5 6 7 8 8 7 6 6 7 7 6 5 4 4 5 4 5 5 5 5 4 5 5 5 5 5 4
6 5 7 3 1 4 6 2 2 3 3 5 4 4 4 5 5 7 7 7 8 8 6 5 5 7 7 5 3 4 5 5 4 4 4 5 6 5 5 5 6 5 5 5
7 7 4 3 4 4 2 2 2 3 3 7 6 5 4 5 6 6 6 6 6 7 7 4 4 5 6 4 4 5 5 5 5 4 4 4 6 6 5 5 4 4 4 4
1 3 3 3 3 2 0 1 2 4 6 7 7 7 7 6 6 5 5 5 5 6 6 4 3 4 4 4 4 5 5 5 5 5 4 4 4 4 4 4 4 4 5 5
1 3 3 4 3 2 3 4 5 6 6 6 8 8 7 7 6 5 5 4 4 5 5 4 3 4 3 3 4 5 5 4 4 4 4 4 3 3 3 2 4 5 5 5
5 6 4 3 2 1 4 4 5 6 6 5 5 6 6 6 5 5 5 4 4 4 4 3 3 3 3 3 4 5 4 4 3 4 4 4 4 4 7 5 6 6 6 6
4 3 3 1 1 2 3 4 5 5 6 5 4 5 7 5 4 5 5 5 4 3 3 3 3 2 2 2 3 4 4 4 3 3 4 4 4 4 4 5 8 8 7 8
3 3 2 1 1 3 5 6 6 7 6 5 4 5 6 6 5 5 4 3 4 3 3 3 3 2 1 2 3 3 3 4 4 3 3 4 4 4 4 5 4 3 5 7
2 2 4 3 3 4 4 6 7 6 5 5 5 5 6 6 5 4 3 4 5 4 3 3 2 2 1 2 3 3 3 3 3 3 3 4 4 4 4 5 5 4 4 5
1 1 4 4 4 4 4 5 6 5 5 5 5 5 5 6 5 4 4 4 4 3 3 3 2 1 1 2 2 2 2 4 4 4 4 4 4 5 5 5 5 5 5 5
2 3 4 4 4 4 4 4 5 5 5 6 6 6 6 6 6 4 4 3 3 3 3 2 2 2 2 2 3 2 3 4 6 5 4 4 4 5 5 5 5 5 4 4
6 6 6 6 6 6 4 4 5 6 5 5 6 7 6 6 5 4 4 4 4 4 3 2 2 3 3 3 3 3 3 3 4 4 4 4 4 5 5 5 5 5 4 4
4 4 5 5 6 6 5 5 5 5 6 7 7 6 5 4 4 4 4 5 4 3 1 2 4 4 3 3 4 3 4 4 5 4 4 5 5 4 4 5 5 5 5 5
1 1 3 3 4 5 5 5 6 6 6 7 7 7 6 4 5 5 4 3 2 2 3 3 3 3 3 3 5 3 4 4 5 5 4 4 4 4 4 4 4 4 4 4
1 2 3 4 5 5 6 7 8 7 6 7 7 7 6 5 5 4 4 2 1 3 4 4 3 2 2 3 4 3 3 3 4 4 4 4 4 3 3 3 4 4 4 4
1 2 4 5 6 5 4 5 7 8 7 6 6 7 6 5 4 3 2 2 2 4 3 2 2 3 4 4 3 3 3 3 3 3 3 3 3 3 3 4 4 4 4 4
2 3 4 6 7 6 6 6 6 7 7 6 6 6 6 4 4 3 2 1 2 4 3 2 2 3 4 3 2 3 3 3 3 3 3 3 4 4 4 4 4 4 5 5
4 5 5 6 7 7 7 5 5 5 5 5 5 5 5 4 2 1 2 3 4 4 2 2 3 3 3 2 2 3 3 3 3 3 3 3 4 4 4 5 5 5 5 6
6 6 6 7 6 5 5 6 6 6 6 4 4 4 3 3 2 2 2 2 3 3 1 2 2 2 2 2 3 3 3 3 3 3 3 4 4 4 5 5 5 5 6 6
6 5 5 5 4 4 4 5 5 4 4 4 3 2 2 2 2 2 2 2 3 2 1 1 1 1 1 2 2 3 3 3 3 3 4 4 4 5 5 5 6 6 6 6
7 6 6 5 5 4 5 5 5 4 3 3 3 1 2 2 2 2 2 2 2 2 1 1 1 1 1 1 2 2 2 2 3 4 4 4 5 5 6 6 6 6 6 6
Wind_Direction
217 207 178 181 174 168 172 178 179 218 224 248 239 227 220 204 183 174 177 181 185 183 177 170 170 173 171 169 163 155 152 160 173 167 159 153 149 153 152 152 164 165 159 163
219 198 189 196 194 178 182 177 198 215 248 250 244 206 207 199 184 188 193 190 185 178 175 178 179 177 172 171 167 155 156 163 158 150 146 146 143 136 129 129 129 128 140 152
203 199 126 214 207 187 182 182 173 202 237 249 212 206 208 202 196 198 196 189 183 182 182 182 180 173 172 168 157 155 158 158 156 153 150 151 143 129 127 128 121 116 116 124
138 124 194 236 251 189 171 201 210 223 241 224 225 214 211 203 198 201 193 183 180 176 171 169 164 156 150 143 147 157 161 160 157 151 150 142 133 132 127 124 123 121 116 116
128 169 248 292 245 167 165 228 223 217 231 177 131 67 337 254 206 199 188 173 168 164 158 156 154 151 141 141 146 155 166 170 171 161 154 151 152 144 129 122 115 112 112 118
129 152 212 234 268 259 125 259 257 189 187 161 126 154 255 270 151 135 126 130 137 135 132 139 144 141 139 146 150 162 168 166 161 155 155 158 155 141 126 123 121 115 104 104
150 187 247 253 289 113 159 231 245 181 180 168 172 202 197 96 87 100 108 116 121 120 124 131 133 133 139 144 158 160 147 143 140 147 150 148 142 134 131 126 121 114 107 95
146 173 239 286 45 178 213 233 179 172 166 156 131 93 82 87 96 100 105 110 117 118 114 112 124 134 138 145 145 129 129 125 123 129 137 137 137 130 127 129 129 125 118 105
183 203 245 285 249 269 215 187 194 166 149 137 127 118 103 96 95 92 98 104 105 113 108 96 101 129 139 140 134 131 127 128 128 124 119 130 137 139 136 133 137 136 133 129
197 275 293 309 304 317 22 159 142 133 131 133 133 132 124 113 103 96 92 99 104 109 111 108 98 100 112 122 130 136 139 140 140 138 130 125 132 142 149 153 156 153 152 151
218 279 330 341 350 18 60 81 89 92 104 124 131 131 131 123 116 110 99 90 99 112 112 104 101 99 102 116 126 128 135 139 139 140 140 129 116 111 143 153 175 170 172 165
208 218 192 244 298 80 107 107 113 108 98 99 120 128 119 117 115 111 104 98 100 99 101 96 94 98 107 124 133 137 142 146 148 148 146 142 133 101 64 80 98 114 127 139
212 191 174 200 26 76 103 102 99 103 116 113 102 117 123 117 112 107 104 102 105 108 109 106 102 93 96 126 139 148 155 157 156 158 160 156 153 150 136 84 78 87 107 123
194 139 128 174 152 100 104 101 93 87 88 99 103 105 110 107 104 104 105 106 104 103 100 96 92 72 57 117 130 138 147 157 159 160 160 158 156 157 156 150 136 98 81 107
248 199 176 158 133 116 111 112 106 102 99 92 100 112 118 120 122 118 109 105 104 98 89 85 78 45 51 119 131 136 141 148 152 150 148 148 145 143 141 138 137 131 118 101
279 123 137 141 149 146 134 133 132 136 133 125 124 127 126 122 117 107 101 108 115 117 106 97 80 42 73 112 124 130 139 143 138 136 138 137 137 138 140 141 140 143 147 144
162 172 174 177 184 181 174 165 159 156 148 143 141 132 123 117 112 106 98 99 103 102 103 106 95 80 94 110 121 128 131 136 131 128 130 133 135 137 141 144 149 152 153 154
223 214 199 190 190 188 184 164 155 147 144 145 134 129 132 139 143 140 129 116 103 87 74 85 92 90 90 95 105 109 118 120 122 122 121 123 126 132 137 139 143 143 138 141
253 226 207 193 183 173 173 166 156 143 136 138 139 138 137 136 132 129 127 125 123 114 86 95 102 97 98 104 106 106 113 115 113 111 114 119 122 126 132 138 142 146 149 153
242 200 174 160 145 148 153 142 133 130 135 138 132 127 126 126 126 127 128 124 135 142 139 128 120 112 110 116 112 109 113 116 117 117 117 123 130 133 137 144 150 154 159 165
89 116 128 132 126 127 137 139 137 137 136 135 135 136 135 127 124 127 128 123 114 123 130 131 128 129 124 123 117 115 116 120 126 132 136 137 140 144 152 160 165 169 173 177
69 111 125 124 121 116 114 123 129 131 130 131 129 128 128 127 125 116 113 136 140 133 130 132 134 141 140 131 127 125 126 128 130 134 141 148 157 168 174 178 184 188 190 190
83 103 112 117 120 117 107 108 118 128 133 137 140 141 142 144 146 138 129 131 134 141 140 152 162 162 154 144 146 149 154 155 157 165 172 178 184 189 194 200 204 204 202 203
89 96 100 104 107 108 108 106 107 111 116 118 125 135 138 135 123 120 135 145 152 154 159 179 183 187 179 175 175 177 184 186 185 189 193 196 200 204 208 211 214 214 212 212
92 93 96 100 104 108 111 109 103 100 100 102 109 118 126 131 140 148 138 157 168 160 167 204 204 192 184 190 191 192 196 200 201 200 206 208 211 214 216 218 218 217 217 219
87 88 89 89 97 106 107 104 103 104 104 99 87 90 101 106 123 134 142 156 157 157 157 160 184 188 189 192 195 197 202 206 209 211 214 215 217 218 220 219 219 219 221 222
77 79 83 81 79 87 95 99 106 110 115 119 108 83 94 106 112 123 131 139 147 155 168 192 206 203 205 215 224 224 223 223 221 220 220 219 219 220 222 221 220 221 221 223
Height
1486 1483 1483 1483 1487 1494 1497 1503 1510 1505 1503 1490 1483 1482 1482 1484 1487 1489 1492 1495 1498 1501 1504 1507 1509 1512 1514 1515 1517 1519 1520 1522 1524 1525 1527 1528 1530 1531 1532 1533 1534 1536 1536 1537
1483 1481 1481 1483 1482 1486 1488 1491 1494 1493 1493 1479 1478 1479 1481 1482 1484 1487 1489 1492 1496 1499 1502 1505 1508 1510 1513 1515 1516 1518 1520 1521 1523 1524 1526 1527 1528 1530 1531 1532 1532 1533 1534 1535
1494 1483 1483 1492 1482 1482 1482 1482 1485 1490 1483 1477 1477 1477 1477 1479 1481 1483 1486 1490 1493 1497 1500 1503 1506 1509 1511 1513 1515 1517 1519 1520 1522 1523 1525 1526 1527 1528 1529 1530 1530 1530 1531 1532
1497 1491 1501 1487 1474 1474 1477 1478 1478 1477 1475 1474 1474 1474 1476 1477 1479 1481 1484 1488 1491 1495 1499 1502 1505 1507 1509 1512 1514 1516 1517 1519 1520 1521 1523 1524 1525 1526 1527 1528 1528 1529 1529 1530
1502 1500 1493 1480 1472 1473 1476 1478 1474 1474 1473 1473 1473 1474 1475 1476 1478 1480 1483 1486 1490 1493 1497 1501 1503 1506 1508 1510 1512 1514 1516 1517 1518 1520 1521 1522 1523 1524 1525 1526 1527 1527 1528 1528
1499 1498 1500 1482 1469 1468 1472 1480 1472 1471 1472 1473 1474 1480 1476 1475 1476 1479 1482 1485 1488 1492 1496 1499 1501 1504 1506 1508 1509 1511 1513 1515 1516 1517 1519 1520 1521 1523 1524 1524 1525 1526 1526 1527
1495 1494 1489 1473 1469 1469 1484 1480 1469 1469 1470 1471 1472 1474 1474 1475 1476 1478 1481 1484 1487 1491 1494 1497 1500 1502 1504 1506 1507 1509 1511 1512 1514 1515 1516 1518 1519 1520 1521 1522 1523 1523 1524 1525
1494 1494 1490 1470 1469 1472 1472 1466 1466 1467 1468 1470 1471 1473 1474 1475 1476 1478 1480 1483 1487 1490 1493 1496 1499 1501 1503 1504 1506 1507 1508 1509 1511 1513 1514 1516 1517 1518 1519 1520 1521 1521 1522 1523
1481 1481 1472 1469 1468 1467 1466 1465 1465 1465 1467 1468 1471 1473 1475 1476 1478 1480 1482 1484 1487 1490 1493 1495 1497 1499 1501 1502 1504 1505 1506 1507 1508 1510 1512 1513 1514 1515 1516 1517 1518 1519 1519 1520
1475 1471 1469 1467 1466 1466 1465 1465 1465 1466 1467 1468 1470 1473 1475 1477 1479 1481 1484 1486 1488 1490 1492 1494 1495 1497 1499 1500 1501 1502 1503 1505 1506 1508 1509 1510 1511 1512 1513 1514 1515 1516 1517 1518
1473 1470 1467 1466 1466 1466 1466 1466 1467 1467 1468 1470 1472 1473 1475 1477 1480 1482 1484 1486 1488 1490 1491 1493 1494 1495 1496 1497 1499 1500 1501 1503 1504 1505 1506 1507 1508 1509 1510 1512 1513 1514 1515 1516
1471 1467 1468 1467 1467 1466 1467 1467 1468 1468 1470 1471 1473 1474 1476 1478 1480 1481 1483 1485 1487 1488 1490 1491 1493 1493 1494 1495 1496 1497 1499 1500 1501 1502 1503 1504 1505 1506 1508 1509 1511 1512 1514 1515
1465 1465 1466 1467 1467 1467 1468 1468 1469 1470 1471 1473 1475 1476 1477 1478 1480 1481 1483 1485 1486 1487 1488 1489 1490 1491 1492 1493 1494 1495 1495 1496 1498 1499 1500 1501 1502 1504 1505 1507 1508 1510 1512 1513
1464 1465 1466 1466 1467 1468 1468 1469 1470 1471 1473 1474 1476 1477 1478 1479 1481 1482 1484 1485 1486 1487 1487 1488 1488 1489 1490 1491 1492 1492 1493 1493 1494 1496 1497 1499 1500 1501 1503 1504 1506 1507 1510 1512
1463 1464 1465 1466 1467 1468 1469 1469 1470 1471 1473 1474 1476 1477 1478 1479 1481 1482 1483 1484 1485 1486 1485 1486 1486 1488 1489 1489 1489 1490 1490 1491 1492 1493 1495 1496 1498 1499 1501 1502 1504 1506 1508 1510
1462 1463 1464 1465 1466 1467 1468 1469 1470 1471 1472 1473 1475 1477 1478 1479 1480 1481 1482 1483 1484 1484 1484 1484 1485 1486 1486 1487 1487 1488 1488 1489 1490 1491 1492 1494 1496 1497 1499 1501 1502 1505 1507 1509
1461 1462 1463 1464 1465 1467 1468 1469 1470 1471 1472 1473 1474 1476 1477 1478 1479 1480 1481 1482 1483 1483 1483 1484 1484 1484 1484 1485 1485 1486 1487 1487 1488 1489 1491 1493 1494 1496 1498 1500 1502 1504 1506 1508
1460 1460 1461 1463 1464 1465 1467 1468 1469 1470 1471 1472 1474 1475 1477 1478 1479 1480 1480 1481 1482 1482 1483 1483 1483 1483 1483 1484 1484 1485 1486 1487 1488 1489 1490 1492 1493 1495 1497 1499 1501 1503 1505 1507
1457 1458 1459 1461 1462 1464 1465 1466 1468 1469 1470 1472 1473 1474 1476 1478 1479 1479 1480 1480 1481 1482 1482 1483 1483 1483 1483 1484 1484 1485 1486 1487 1488 1489 1491 1492 1494 1495 1497 1499 1500 1502 1504 1506
1454 1455 1457 1458 1460 1462 1464 1465 1467 1468 1470 1471 1472 1474 1476 1477 1478 1479 1480 1480 1481 1482 1482 1483 1484 1484 1484 1485 1485 1486 1486 1488 1489 1490 1491 1492 1494 1496 1497 1499 1501 1503 1504 1506
1452 1453 1455 1456 1458 1460 1463 1464 1466 1467 1469 1471 1472 1474 1475 1477 1478 1479 1480 1481 1482 1482 1483 1484 1485 1485 1486 1486 1487 1487 1488 1489 1490 1491 1492 1494 1495 1497 1498 1500 1502 1503 1505 1506
1451 1452 1453 1455 1457 1459 1462 1464 1465 1467 1469 1471 1472 1474 1476 1477 1479 1480 1481 1482 1483 1484 1485 1485 1486 1487 1487 1488 1489 1489 1490 1491 1492 1493 1494 1495 1497 1498 1499 1501 1502 1503 1505 1506
1450 1451 1453 1455 1457 1459 1461 1464 1466 1468 1469 1471 1473 1475 1476 1478 1480 1481 1482 1484 1484 1485 1486 1487 1488 1489 1489 1490 1490 1491 1492 1493 1493 1495 1496 1497 1498 1499 1500 1501 1502 1504 1505 1506
1451 1452 1454 1456 1458 1460 1462 1464 1467 1469 1471 1472 1474 1476 1478 1479 1481 1483 1484 1485 1486 1487 1488 1489 1490 1491 1491 1492 1492 1493 1494 1494 1495 1496 1497 1498 1499 1499 1500 1501 1502 1503 1504 1505
1453 1455 1456 1458 1460 1462 1464 1466 1468 1471 1472 1474 1476 1478 1480 1481 1483 1484 1485 1487 1487 1488 1489 1490 1491 1492 1492 1493 1493 1494 1495 1496 1496 1497 1498 1498 1499 1499 1500 1501 1501 1502 1503 1504
1457 1458 1460 1461 1463 1465 1466 1469 1471 1473 1475 1477 1479 1480 1482 1483 1485 1486 1487 1488 1489 1489 1490 1491 1492 1492 1493 1493 1494 1495 1495 1496 1496 1497 1498 1498 1498 1499 1499 1499 1499 1500 1501 1502
1461 1462 1463 1465 1467 1469 1470 1472 1474 1476 1478 1479 1481 1483 1484 1485 1486 1487 1488 1489 1489 1490 1491 1491 1492 1493 1493 1493 1494 1494 1495 1495 1496 1496 1496 1497 1497 1497 1497 1498 1498 1498 1499 1499